Location: Grassland Mountain Observatory
(35.7543°N, 82.8038°W)
Time: 08:59:57
(UTC-05:00)

Envisat - Visible Passes

Search period start: 28 November 2021 00:00
Search period end: 08 December 2021 00:00
Orbit: 764 x 766 km, 98.2° (Epoch: 28 November)

Date Brightness Start Highest point End Pass type
(mag) Time Alt. Az. Time Alt. Az. Time Alt. Az.
28 Nov 5.7 04:22:41 10° NE 04:25:54 17° E 04:29:07 10° SE visible
28 Nov 3.2 06:00:16 10° N 06:05:07 47° WNW 06:09:57 10° SW visible
29 Nov 3.1 05:23:16 10° NNE 05:28:21 74° ESE 05:33:24 10° S visible
29 Nov 6.5 18:18:04 10° WSW 18:19:12 11° W 18:20:20 10° WNW visible
30 Nov 4.8 04:46:56 10° NE 04:51:24 30° E 04:55:50 10° SSE visible
30 Nov 3.9 06:26:04 10° NNW 06:30:15 27° WNW 06:34:26 10° SW visible
01 Dec 6.0 04:12:04 10° ENE 04:14:15 13° E 04:16:25 10° ESE visible
01 Dec 2.9 05:48:37 10° N 05:53:37 62° WNW 05:58:36 10° SSW visible
02 Dec 3.6 05:11:48 10° NNE 05:16:47 56° E 05:21:45 10° S visible
02 Dec 4.5 06:52:25 10° NNW 06:55:17 15° WNW 06:58:09 10° W visible
02 Dec 6.1 18:04:49 10° SW 18:07:32 14° W 18:10:15 10° WNW visible
03 Dec 5.2 04:35:44 10° NE 04:39:46 24° E 04:43:47 10° SSE visible
03 Dec 3.6 06:14:14 10° N 06:18:47 34° WNW 06:23:18 10° SW visible
04 Dec 2.8 05:37:00 10° N 05:42:06 80° WNW 05:47:09 10° SSW visible
05 Dec 4.1 05:00:23 10° NNE 05:05:12 43° E 05:10:00 10° S visible
05 Dec 4.2 06:40:18 10° NNW 06:43:51 20° WNW 06:47:25 10° WSW visible
05 Dec 5.9 17:52:21 10° SW 17:55:52 19° W 17:59:25 10° NW visible
06 Dec 5.5 04:24:41 10° NE 04:28:08 18° E 04:31:34 10° SE visible
06 Dec 3.2 06:02:30 10° N 06:07:18 44° WNW 06:12:04 10° SW visible
07 Dec 3.0 05:25:27 10° NNE 05:30:33 79° ESE 05:35:37 10° S visible
